Showing default

MANDRAKE 2 ABLE, 48907

Orbit data source: Space-Track

MANDRAKE 2 ABLE, 48907 is an American payload satellite in SSO that was launched on Wed, 30 Jun 2021 UTC via an FALCON 9 launch vehicle from the Air Force Eastern Test Range (AFETR). Payload-class satellites include a variety of spacecraft equipped with specific instruments for various scientific and technological missions. These include communications satellites like Starlink; space stations such as the ISS; scientific satellites like the Hubble; Earth observation satellites from companies like Planet Labs, Umbra, and HawkEye 360; GPS; miniature CubeSats for education and research; and military/defense satellites.

Loading next visibility...
Identifier
48907, 2021-059AE
Orbit
SSO
Country
Flag of USUS
Related business
Manufacturer
Astro Digital
Mission
Operational Defense Communications
Bus & Motor
CORVUS-XL, Unknown motor
Mass
23 kg wet, 23 kg dry
Launch date (UTC)
2021-06-30 (5 years ago)
Launch vehicle
FALCON 9
Launch site
Air Force Eastern Test Range (AFETR)
Object type
Payload
Rocket body
Debris
Shape & HBR
Box + 1 Pan, 1.5 m
Radar Cross Section
0.375 m², Medium (>0.1 m² and < 1m²)

Expand to show TLE details & history
Last TLE update: 16 hours ago

TLE from 16 hours ago
0 MANDRAKE 2 ABLE
1 48907U 21059AE  26094.48540280  .00032153  00000-0  53305-3 0  9990
2 48907  97.7049 278.8123 0004337 255.9166 104.1603 15.52081452265683
Epoch: 2026-04-04T11:38Z
TLE epoch observation values (Epoch: 2026-04-04T11:38:58.801Z)
Latitude
-0.00012°
Longitude
-88.73719°
Altitude
414.496 km
Speed
7.662 km/s
True Right ascension
18h 35m 14s
True Declination
0° 00' 00"
Sunlit
Object was in daylight at epoch
Visualization orbit readout
Latitude
Unknown
Longitude
Unknown
Altitude
Unknown
Speed
Unknown
Apparent Right ascension
Unknown
Apparent Declination
Unknown
Sunlit
N/A
Visualization observer readout
Local Sidereal Time
09:57:02
Azimuth
Unknown
Elevation
Unknown
Doppler factor
Unknown
Orbital elements
Apogee altitude
410.529 km
Perigee altitude
404.643 km
Semi-major axis
6,785.723 km
Eccentricity
0.00043
Inclination
97.7049°
RAAN
278.8123°
Arg. of periapsis
255.9166°
True anomaly
104.20848°
Mean anomaly
104.1603°
Eccentric anomaly
104.18439°
Mean motion
3.88284 °/min
Orbital period
92.72 mins
BSTAR
0.00053305
Loading maneuver chart data...
Computing Atmospheric mass density...
Loading historical data...
Loading historical data...
Loading historical data...
Loading historical data...
Loading historical data...
Loading historical data...
Loading historical data...

Documentation

Showing up to 5 results
|